Flag for Germany Weather past 2 weeks in Freital, Saxony, Germany

Now
25 °F

Low clouds.


Feels Like: 21 °F
Forecast: 14 / 28 °F
Wind: 3 mph from North

Location: Dresden-Klotzsche

Current Time: Dec 29, 2014 at 5:07:58 PM

Latest Report: Dec 29, 2014 at 4:00 PM


Visibility: 6 mi

Pressure: 30.43 "Hg

Humidity: 88%

Dew point: 22 °F

Location of FreitalLocation

Historic Weather in Freital — Graph

°F

Freital temperature yesterday

Maximum temperature yesterday: 23 °F (at 11:00 PM)
Minimum temperature yesterday: 15 °F (at 6:00 AM)
Average temperature yesterday: 18 °F

Past Weeks' High & Low Weather Summary

 TemperatureHumidityPressure
High54 °F (Dec 19, 2:00 AM)100% (Dec 14, 9:00 PM)30.43 "Hg (Dec 14, 9:00 PM)
Low15 °F (Dec 28, 6:00 AM)62% (Dec 15, 6:00 PM)29.71 "Hg (Dec 17, 7:00 PM)
Average39 °F83%30.02 "Hg
* Reported Dec 14 5:00 PM — Dec 29 4:00 PM, Freital, Weather by CustomWeather, © 2014

Note: Actual official high and low records may vary slightly from our data, if they occured in-between our weather recording intervals... More about our weather records

Advertising

Freital weather history for previous 24 hours

 ConditionsComfort  
Time TempWeatherWind HumidityBarometerVisibility
4:00 PM
Dec 29
25 °FLow clouds.3 mph88%30.43 "Hg6 mi
3:00 PM26 °FOvercast.2 mph86%30.40 "Hg9 mi
2:00 PM27 °FPartly sunny.3 mph85%30.36 "Hg9 mi
1:00 PM27 °FPartly sunny.3 mph84%30.33 "Hg9 mi
12:00 PM27 °FLow clouds.5 mph91%30.31 "Hg6 mi
11:00 AM27 °FLow clouds.3 mph96%30.29 "Hg3 mi
9:00 AM27 °FSnow flurries. Low clouds.2 mph96%30.23 "Hg5 mi
8:00 AM27 °FLight snow. Low clouds.3 mph97%30.22 "Hg4 mi
7:00 AM26 °FLight snow. Low clouds.3 mph98%30.22 "Hg1 mi
6:00 AM25 °FSnow. Low clouds.3 mph98%30.24 "Hg1 mi
5:00 AM25 °FLight snow. Low clouds.5 mph96%30.27 "Hg1 mi
4:00 AM26 °FLight snow. Low clouds.6 mph92%30.30 "Hg2 mi
3:00 AM26 °FOvercast.5 mph90%30.33 "Hg6 mi
2:00 AM26 °FLight snow. Low clouds.6 mph94%30.33 "Hg4 mi
1:00 AM25 °FLight snow. Low clouds.6 mph95%30.35 "Hg4 mi
12:00 AM24 °FLight snow. Low clouds.7 mph93%30.37 "Hg6 mi
11:00 PM
Dec 28
23 °FLight snow. Low clouds.3 mph91%30.39 "Hg7 mi
9:00 PM23 °FLow clouds.3 mph93%30.40 "Hg7 mi
8:00 PM22 °FLow clouds.3 mph89%30.38 "Hg7 mi
7:00 PM22 °FOvercast.3 mph88%30.37 "Hg7 mi
6:00 PM20 °FOvercast.3 mph88%30.35 "Hg6 mi
5:00 PM19 °FLow clouds.2 mph88%30.34 "Hg1 mi
Weather by CustomWeather, © 2014

See weather overviewHow to use our weather pages